When you browse on this site, cookies collect data to enhance your experience and personalize the content and advertising you see.
Visit our Privacy Policy to learn more. By continuing to use the site, you agree to this use of cookies and data.
  • In Hungary
  • List of Countries
  • For 7 days
  • Water Temperature
  • Satellite Maps
  • Weather Map
  • News
  • Weather Widgets
  • user-avatar
    Login

    Hourly Weather Khairabad

    Today, 26 March, Tuesday

    Time Temperature Precipitation Wind Pressure Humidity
    00:00 +24°C° 0 mm 2 mps 745 mmHg 45%
    01:00 +24°C° 0 mm 2 mps 745 mmHg 46%
    02:00 +23°C° 0 mm 2 mps 745 mmHg 47%
    03:00 +23°C° 0.1 mm 2 mps 746 mmHg 49%
    04:00 +21°C° 0.1 mm 2 mps 746 mmHg 51%
    05:00 +21°C° 0.1 mm 2 mps 746 mmHg 53%
    06:00 +23°C° 0.1 mm 2 mps 747 mmHg 50%
    07:00 +25°C° 0.1 mm 3 mps 747 mmHg 47%
    08:00 +26°C° 0.1 mm 3 mps 748 mmHg 44%
    09:00 +28°C° 0 mm 2 mps 748 mmHg 39%
    10:00 +30°C° 0 mm 2 mps 748 mmHg 34%
    11:00 +32°C° 0 mm 1 mps 748 mmHg 29%
    12:00 +33°C° 0 mm 1 mps 747 mmHg 26%
    13:00 +34°C° 0 mm 2 mps 747 mmHg 23%
    14:00 +35°C° 0 mm 3 mps 746 mmHg 21%
    15:00 +34°C° 0 mm 3 mps 746 mmHg 22%
    16:00 +33°C° 0 mm 3 mps 746 mmHg 22%
    17:00 +33°C° 0 mm 4 mps 745 mmHg 23%
    18:00 +30°C° 0 mm 3 mps 746 mmHg 26%
    19:00 +29°C° 0 mm 3 mps 746 mmHg 28%
    20:00 +27°C° 0 mm 2 mps 746 mmHg 31%
    21:00 +26°C° 0 mm 2 mps 746 mmHg 32%
    22:00 +26°C° 0 mm 3 mps 746 mmHg 33%
    23:00 +25°C° 0 mm 3 mps 746 mmHg 35%

    Tomorrow, 27 March, Wednesday

    Time Temperature Precipitation Wind Pressure Humidity
    00:00 +25°C° 0 mm 2 mps 746 mmHg 37%
    01:00 +24°C° 0 mm 2 mps 746 mmHg 39%
    02:00 +23°C° 0 mm 2 mps 745 mmHg 41%
    03:00 +23°C° 0 mm 2 mps 745 mmHg 43%
    04:00 +21°C° 0 mm 2 mps 745 mmHg 45%
    05:00 +22°C° 0 mm 1 mps 745 mmHg 46%
    06:00 +23°C° 0 mm 1 mps 746 mmHg 44%
    07:00 +25°C° 0 mm 1 mps 746 mmHg 41%
    08:00 +26°C° 0 mm 1 mps 747 mmHg 38%
    09:00 +28°C° 0 mm 2 mps 747 mmHg 33%
    10:00 +30°C° 0 mm 2 mps 747 mmHg 28%
    11:00 +32°C° 0 mm 2 mps 747 mmHg 23%
    12:00 +34°C° 0 mm 2 mps 746 mmHg 21%
    13:00 +35°C° 0 mm 3 mps 746 mmHg 18%
    14:00 +36°C° 0 mm 3 mps 745 mmHg 16%
    15:00 +36°C° 0 mm 2 mps 745 mmHg 18%
    16:00 +35°C° 0 mm 2 mps 744 mmHg 19%
    17:00 +35°C° 0 mm 2 mps 744 mmHg 21%
    18:00 +32°C° 0 mm 2 mps 744 mmHg 23%
    19:00 +30°C° 0 mm 2 mps 745 mmHg 25%
    20:00 +28°C° 0 mm 1 mps 745 mmHg 27%
    21:00 +27°C° 0 mm 1 mps 745 mmHg 28%
    22:00 +27°C° 0 mm 1 mps 745 mmHg 30%
    23:00 +26°C° 0 mm 1 mps 745 mmHg 31%

    Day after tomorrow, 28 March, Thursday

    Time Temperature Precipitation Wind Pressure Humidity
    00:00 +26°C° 0 mm 1 mps 745 mmHg 33%
    01:00 +25°C° 0 mm 1 mps 744 mmHg 34%
    02:00 +25°C° 0 mm 1 mps 744 mmHg 36%
    03:00 +24°C° 0 mm 1 mps 744 mmHg 37%
    04:00 +24°C° 0 mm 1 mps 744 mmHg 38%
    05:00 +23°C° 0 mm 1 mps 744 mmHg 40%
    06:00 +25°C° 0 mm 1 mps 745 mmHg 37%
    07:00 +26°C° 0 mm 1 mps 745 mmHg 35%
    08:00 +28°C° 0 mm 1 mps 746 mmHg 33%
    09:00 +30°C° 0 mm 1 mps 746 mmHg 29%
    10:00 +33°C° 0 mm 1 mps 746 mmHg 25%
    11:00 +35°C° 0 mm 1 mps 746 mmHg 22%
    12:00 +36°C° 0 mm 1 mps 745 mmHg 20%
    13:00 +38°C° 0 mm 2 mps 744 mmHg 18%
    14:00 +38°C° 0 mm 2 mps 743 mmHg 16%
    15:00 +38°C° 0 mm 2 mps 743 mmHg 18%
    16:00 +37°C° 0 mm 2 mps 743 mmHg 19%
    17:00 +37°C° 0 mm 2 mps 742 mmHg 21%
    18:00 +35°C° 0 mm 2 mps 743 mmHg 22%
    19:00 +32°C° 0 mm 1 mps 743 mmHg 24%
    20:00 +31°C° 0 mm 1 mps 744 mmHg 25%
    21:00 +30°C° 0 mm 1 mps 743 mmHg 26%
    22:00 +29°C° 0 mm 1 mps 743 mmHg 27%
    23:00 +29°C° 0 mm 2 mps 743 mmHg 27%

    29 March, Friday

    Time Temperature Precipitation Wind Pressure Humidity
    00:00 +28°C° 0 mm 2 mps 743 mmHg 28%
    01:00 +27°C° 0 mm 2 mps 742 mmHg 29%
    02:00 +27°C° 0 mm 2 mps 742 mmHg 29%
    03:00 +26°C° 0 mm 1 mps 742 mmHg 30%
    04:00 +25°C° 0 mm 1 mps 742 mmHg 31%
    05:00 +25°C° 0 mm 1 mps 742 mmHg 31%
    06:00 +27°C° 0 mm 1 mps 743 mmHg 30%
    07:00 +28°C° 0 mm 1 mps 743 mmHg 28%
    08:00 +30°C° 0 mm 2 mps 744 mmHg 26%
    09:00 +32°C° 0 mm 1 mps 744 mmHg 24%
    10:00 +35°C° 0 mm 1 mps 744 mmHg 22%
    11:00 +35°C° 0 mm 0 mps 744 mmHg 19%
    12:00 +39°C° 0 mm 1 mps 743 mmHg 18%
    13:00 +40°C° 0 mm 2 mps 742 mmHg 16%
    14:00 +42°C° 0 mm 3 mps 741 mmHg 15%
    15:00 +40°C° 0 mm 3 mps 741 mmHg 16%
    16:00 +40°C° 0 mm 3 mps 740 mmHg 17%
    17:00 +39°C° 0 mm 3 mps 740 mmHg 18%
    18:00 +37°C° 0 mm 2 mps 741 mmHg 20%
    19:00 +35°C° 0 mm 2 mps 741 mmHg 22%
    20:00 +32°C° 0 mm 1 mps 741 mmHg 23%
    21:00 +31°C° 0 mm 1 mps 741 mmHg 25%
    22:00 +31°C° 0 mm 2 mps 741 mmHg 26%
    23:00 +30°C° 0 mm 2 mps 741 mmHg 27%

    30 March, Saturday

    Time Temperature Precipitation Wind Pressure Humidity
    00:00 +29°C° 0 mm 2 mps 741 mmHg 28%
    01:00 +29°C° 0 mm 2 mps 741 mmHg 29%
    02:00 +28°C° 0 mm 2 mps 741 mmHg 30%
    03:00 +27°C° 0 mm 2 mps 741 mmHg 31%
    04:00 +27°C° 0 mm 2 mps 741 mmHg 32%
    05:00 +26°C° 0 mm 2 mps 741 mmHg 34%
    06:00 +28°C° 0 mm 2 mps 742 mmHg 32%
    07:00 +29°C° 0 mm 2 mps 743 mmHg 30%
    08:00 +31°C° 0 mm 3 mps 743 mmHg 29%
    09:00 +34°C° 0 mm 3 mps 743 mmHg 26%
    10:00 +36°C° 0 mm 2 mps 743 mmHg 23%
    11:00 +38°C° 0 mm 2 mps 743 mmHg 20%
    12:00 +39°C° 0 mm 2 mps 742 mmHg 18%
    13:00 +41°C° 0 mm 2 mps 741 mmHg 16%
    14:00 +42°C° 0 mm 2 mps 740 mmHg 14%
    15:00 +41°C° 0 mm 2 mps 740 mmHg 15%
    16:00 +41°C° 0 mm 2 mps 740 mmHg 15%
    17:00 +40°C° 0 mm 2 mps 739 mmHg 16%
    18:00 +38°C° 0 mm 2 mps 740 mmHg 17%
    19:00 +35°C° 0 mm 1 mps 740 mmHg 18%
    20:00 +34°C° 0 mm 1 mps 741 mmHg 20%
    21:00 +33°C° 0 mm 1 mps 741 mmHg 21%
    22:00 +32°C° 0 mm 2 mps 741 mmHg 23%
    23:00 +31°C° 0 mm 2 mps 741 mmHg 25%

    31 March, Sunday

    Time Temperature Precipitation Wind Pressure Humidity
    00:00 +30°C° 0 mm 2 mps 740 mmHg 27%
    01:00 +29°C° 0 mm 2 mps 740 mmHg 28%
    02:00 +29°C° 0 mm 2 mps 740 mmHg 29%
    03:00 +28°C° 0 mm 3 mps 740 mmHg 31%
    04:00 +28°C° 0 mm 3 mps 740 mmHg 33%
    05:00 +27°C° 0 mm 3 mps 740 mmHg 36%
    06:00 +28°C° 0 mm 4 mps 741 mmHg 35%
    07:00 +30°C° 0 mm 4 mps 742 mmHg 33%
    08:00 +32°C° 0 mm 5 mps 742 mmHg 32%
    09:00 +34°C° 0 mm 5 mps 743 mmHg 29%
    10:00 +36°C° 0 mm 4 mps 743 mmHg 27%
    11:00 +38°C° 0 mm 4 mps 743 mmHg 24%
    12:00 +39°C° 0 mm 3 mps 742 mmHg 22%
    13:00 +40°C° 0 mm 3 mps 741 mmHg 20%
    14:00 +41°C° 0 mm 2 mps 740 mmHg 18%
    15:00 +41°C° 0 mm 2 mps 740 mmHg 19%
    16:00 +40°C° 0 mm 1 mps 740 mmHg 20%
    17:00 +37°C° 0 mm 0 mps 740 mmHg 21%
    18:00 +37°C° 0 mm 1 mps 740 mmHg 22%
    19:00 +35°C° 0 mm 1 mps 740 mmHg 23%
    20:00 +34°C° 0 mm 1 mps 741 mmHg 25%
    21:00 +34°C° 0 mm 2 mps 741 mmHg 26%
    22:00 +33°C° 0 mm 3 mps 741 mmHg 27%
    23:00 +31°C° 0 mm 3 mps 741 mmHg 29%
    Show more